Time,TemperatureF,DewpointF,PressureIn,WindDirection,WindDirectionDegrees,WindSpeedMPH,WindSpeedGustMPH,Humidity,HourlyPrecipIn,Conditions,Clouds,dailyrainin,SoftwareType,DateUTC
2013-05-28 00:01:00,47.7,41.2,30.16,ENE,61,0.0,0.0,78,0.00,,,0.01,Wunderground v.1.15,2013-05-28 04:01:00,
2013-05-28 00:02:00,47.6,41.1,30.16,ENE,61,0.0,0.0,78,0.00,,,0.01,Wunderground v.1.15,2013-05-28 04:02:00,
2013-05-28 00:03:00,47.3,41.1,30.16,ENE,61,1.0,1.0,79,0.00,,,0.01,Wunderground v.1.15,2013-05-28 04:03:00,
2013-05-28 00:05:00,47.1,40.9,30.16,ENE,61,1.0,1.0,79,0.00,,,0.01,Wunderground v.1.15,2013-05-28 04:05:00,
2013-05-28 00:06:00,47.3,41.4,30.16,ENE,61,0.0,1.0,80,0.00,,,0.01,Wunderground v.1.15,2013-05-28 04:06:00,
2013-05-28 00:12:00,47.6,41.4,30.16,ENE,62,0.0,0.0,79,0.00,,,0.01,Wunderground v.1.15,2013-05-28 04:12:00,
2013-05-28 00:17:00,48.2,41.3,30.16,ENE,61,0.0,2.0,77,0.00,,,0.01,Wunderground v.1.15,2013-05-28 04:17:00,
2013-05-28 00:23:00,47.9,41.0,30.16,ENE,62,0.0,2.0,77,0.00,,,0.01,Wunderground v.1.15,2013-05-28 04:23:00,
2013-05-28 00:28:00,47.7,40.8,30.16,ENE,61,0.0,2.0,77,0.00,,,0.01,Wunderground v.1.15,2013-05-28 04:28:00,
2013-05-28 00:33:00,47.1,40.6,30.16,ENE,61,0.0,0.0,78,0.00,,,0.01,Wunderground v.1.15,2013-05-28 04:33:00,
2013-05-28 00:39:00,46.0,40.5,30.16,ENE,61,0.0,0.0,81,0.00,,,0.01,Wunderground v.1.15,2013-05-28 04:39:00,
2013-05-28 00:44:00,45.7,40.8,30.17,ENE,61,0.0,0.0,83,0.00,,,0.01,Wunderground v.1.15,2013-05-28 04:44:00,
2013-05-28 00:49:00,45.8,40.9,30.17,ENE,61,0.0,1.0,83,0.00,,,0.01,Wunderground v.1.15,2013-05-28 04:49:00,
2013-05-28 00:55:00,46.0,41.1,30.17,ENE,61,0.0,0.0,83,0.00,,,0.01,Wunderground v.1.15,2013-05-28 04:55:00,
2013-05-28 01:00:00,46.0,40.8,30.17,ENE,61,0.0,0.0,82,0.00,,,0.01,Wunderground v.1.15,2013-05-28 05:00:00,
2013-05-28 01:06:00,45.7,40.5,30.17,ENE,61,0.0,0.0,82,0.00,,,0.01,Wunderground v.1.15,2013-05-28 05:06:00,
2013-05-28 01:11:00,45.5,40.3,30.17,ENE,62,0.0,2.0,82,0.00,,,0.01,Wunderground v.1.15,2013-05-28 05:11:00,
2013-05-28 01:17:00,45.5,40.3,30.17,ENE,61,2.0,2.0,82,0.00,,,0.01,Wunderground v.1.15,2013-05-28 05:17:00,
2013-05-28 01:22:00,45.2,40.3,30.17,ENE,61,0.0,0.0,83,0.00,,,0.01,Wunderground v.1.15,2013-05-28 05:22:00,
2013-05-28 01:27:00,45.1,40.6,30.18,ENE,62,0.0,2.0,84,0.00,,,0.01,Wunderground v.1.15,2013-05-28 05:27:00,
2013-05-28 01:33:00,44.9,40.4,30.18,ENE,62,0.0,1.0,84,0.00,,,0.01,Wunderground v.1.15,2013-05-28 05:33:00,
2013-05-28 01:38:00,44.8,40.3,30.18,ENE,62,1.0,1.0,84,0.00,,,0.01,Wunderground v.1.15,2013-05-28 05:38:00,
2013-05-28 01:44:00,44.6,40.4,30.18,ENE,62,0.0,0.0,85,0.00,,,0.01,Wunderground v.1.15,2013-05-28 05:44:00,
2013-05-28 01:49:00,44.6,40.4,30.18,ENE,62,0.0,1.0,85,0.00,,,0.01,Wunderground v.1.15,2013-05-28 05:49:00,
2013-05-28 01:54:00,44.6,40.4,30.18,ENE,62,2.0,2.0,85,0.00,,,0.01,Wunderground v.1.15,2013-05-28 05:54:00,
2013-05-28 02:00:00,44.8,40.3,30.19,ENE,62,1.0,1.0,84,0.00,,,0.01,Wunderground v.1.15,2013-05-28 06:00:00,
2013-05-28 02:05:00,44.8,40.3,30.19,ENE,63,0.0,4.0,84,0.00,,,0.01,Wunderground v.1.15,2013-05-28 06:05:00,
2013-05-28 02:10:00,44.5,40.0,30.19,ENE,63,0.0,0.0,84,0.00,,,0.01,Wunderground v.1.15,2013-05-28 06:10:00,
2013-05-28 02:15:00,44.3,39.8,30.18,ENE,63,0.0,4.0,84,0.00,,,0.01,Wunderground v.1.15,2013-05-28 06:15:00,
2013-05-28 02:20:00,44.8,40.3,30.18,ENE,69,3.0,5.0,84,0.00,,,0.01,Wunderground v.1.15,2013-05-28 06:20:00,
2013-05-28 02:25:00,45.4,40.2,30.18,East,97,0.0,8.0,82,0.00,,,0.01,Wunderground v.1.15,2013-05-28 06:25:00,
2013-05-28 02:30:00,45.5,40.0,30.17,East,98,0.0,2.0,81,0.00,,,0.01,Wunderground v.1.15,2013-05-28 06:30:00,
2013-05-28 02:35:00,45.7,40.2,30.17,ESE,111,1.0,6.0,81,0.00,,,0.01,Wunderground v.1.15,2013-05-28 06:35:00,
2013-05-28 02:40:00,45.8,40.0,30.17,ESE,121,2.0,3.0,80,0.00,,,0.01,Wunderground v.1.15,2013-05-28 06:40:00,
2013-05-28 02:45:00,45.8,40.0,30.18,SE,130,5.0,6.0,80,0.00,,,0.01,Wunderground v.1.15,2013-05-28 06:45:00,
2013-05-28 02:50:00,45.8,39.7,30.18,SE,134,1.0,3.0,79,0.00,,,0.01,Wunderground v.1.15,2013-05-28 06:50:00,
2013-05-28 02:55:00,45.7,39.6,30.18,SE,135,0.0,3.0,79,0.00,,,0.01,Wunderground v.1.15,2013-05-28 06:55:00,
2013-05-28 03:00:00,45.4,39.3,30.17,SE,135,0.0,0.0,79,0.00,,,0.01,Wunderground v.1.15,2013-05-28 07:00:00,
2013-05-28 03:05:00,45.2,39.1,30.17,SE,135,0.0,3.0,79,0.00,,,0.01,Wunderground v.1.15,2013-05-28 07:05:00,
2013-05-28 03:10:00,44.8,39.0,30.17,SE,135,1.0,3.0,80,0.00,,,0.01,Wunderground v.1.15,2013-05-28 07:10:00,
2013-05-28 03:15:00,44.5,39.0,30.17,SE,135,0.0,4.0,81,0.00,,,0.01,Wunderground v.1.15,2013-05-28 07:15:00,
2013-05-28 03:20:00,44.2,39.1,30.17,SE,136,0.0,3.0,82,0.00,,,0.01,Wunderground v.1.15,2013-05-28 07:20:00,
2013-05-28 03:25:00,43.9,39.1,30.17,SE,136,0.0,3.0,83,0.00,,,0.01,Wunderground v.1.15,2013-05-28 07:25:00,
2013-05-28 03:30:00,43.5,39.0,30.18,SE,136,0.0,0.0,84,0.00,,,0.01,Wunderground v.1.15,2013-05-28 07:30:00,
2013-05-28 03:35:00,43.2,39.0,30.18,SE,136,0.0,1.0,85,0.00,,,0.01,Wunderground v.1.15,2013-05-28 07:35:00,
2013-05-28 03:40:00,42.9,38.7,30.18,SE,136,0.0,0.0,85,0.00,,,0.01,Wunderground v.1.15,2013-05-28 07:40:00,
2013-05-28 03:45:00,42.6,38.7,30.17,SE,136,0.0,0.0,86,0.00,,,0.01,Wunderground v.1.15,2013-05-28 07:45:00,
2013-05-28 03:50:00,42.5,38.6,30.17,SE,136,0.0,0.0,86,0.00,,,0.01,Wunderground v.1.15,2013-05-28 07:50:00,
2013-05-28 03:55:00,42.3,38.7,30.17,SE,136,0.0,1.0,87,0.00,,,0.01,Wunderground v.1.15,2013-05-28 07:55:00,
2013-05-28 04:00:00,42.2,38.6,30.18,SE,136,0.0,0.0,87,0.00,,,0.01,Wunderground v.1.15,2013-05-28 08:00:00,
2013-05-28 04:05:00,42.2,38.6,30.18,SE,136,0.0,0.0,87,0.00,,,0.01,Wunderground v.1.15,2013-05-28 08:05:00,
2013-05-28 04:10:00,41.9,38.3,30.18,SE,136,0.0,0.0,87,0.00,,,0.01,Wunderground v.1.15,2013-05-28 08:10:00,
2013-05-28 04:16:00,41.8,38.5,30.18,SE,136,0.0,2.0,88,0.00,,,0.01,Wunderground v.1.15,2013-05-28 08:16:00,
2013-05-28 04:21:00,41.5,38.2,30.18,SE,136,0.0,0.0,88,0.00,,,0.01,Wunderground v.1.15,2013-05-28 08:21:00,
2013-05-28 04:26:00,41.5,38.5,30.18,SE,136,0.0,1.0,89,0.00,,,0.01,Wunderground v.1.15,2013-05-28 08:26:00,
2013-05-28 04:31:00,41.6,38.6,30.18,SE,136,0.0,0.0,89,0.00,,,0.01,Wunderground v.1.15,2013-05-28 08:31:00,
2013-05-28 04:36:00,41.6,38.6,30.18,SE,136,0.0,0.0,89,0.00,,,0.01,Wunderground v.1.15,2013-05-28 08:36:00,
2013-05-28 04:41:00,41.3,38.3,30.18,SE,136,0.0,0.0,89,0.00,,,0.01,Wunderground v.1.15,2013-05-28 08:41:00,
2013-05-28 04:46:00,41.2,38.2,30.19,SE,136,0.0,1.0,89,0.00,,,0.00,Wunderground v.1.15,2013-05-28 08:46:00,
2013-05-28 04:51:00,41.5,38.8,30.19,SE,136,0.0,1.0,90,0.00,,,0.00,Wunderground v.1.15,2013-05-28 08:51:00,
2013-05-28 04:56:00,41.6,38.9,30.19,SE,136,0.0,2.0,90,0.00,,,0.00,Wunderground v.1.15,2013-05-28 08:56:00,
2013-05-28 05:01:00,41.8,39.1,30.19,SE,136,0.0,0.0,90,0.00,,,0.00,Wunderground v.1.15,2013-05-28 09:01:00,
2013-05-28 05:06:00,42.1,39.4,30.19,SE,136,2.0,2.0,90,0.00,,,0.00,Wunderground v.1.15,2013-05-28 09:06:00,
2013-05-28 05:11:00,42.2,39.5,30.19,SE,136,0.0,0.0,90,0.00,,,0.00,Wunderground v.1.15,2013-05-28 09:11:00,
2013-05-28 05:16:00,41.9,38.9,30.19,SE,136,0.0,0.0,89,0.00,,,0.00,Wunderground v.1.15,2013-05-28 09:16:00,
2013-05-28 05:21:00,41.6,38.9,30.19,SE,136,0.0,0.0,90,0.00,,,0.00,Wunderground v.1.15,2013-05-28 09:21:00,
2013-05-28 05:26:00,41.3,38.6,30.19,SE,136,0.0,0.0,90,0.00,,,0.00,Wunderground v.1.15,2013-05-28 09:26:00,
2013-05-28 05:31:00,40.9,38.2,30.19,SE,136,0.0,0.0,90,0.00,,,0.00,Wunderground v.1.15,2013-05-28 09:31:00,
2013-05-28 05:36:00,40.8,38.4,30.19,SE,136,0.0,1.0,91,0.00,,,0.00,Wunderground v.1.15,2013-05-28 09:36:00,
2013-05-28 05:41:00,40.8,38.4,30.19,SE,136,0.0,0.0,91,0.00,,,0.00,Wunderground v.1.15,2013-05-28 09:41:00,
2013-05-28 05:46:00,40.9,38.5,30.20,SE,136,0.0,1.0,91,0.00,,,0.00,Wunderground v.1.15,2013-05-28 09:46:00,
2013-05-28 05:51:00,40.8,38.4,30.20,SE,136,0.0,0.0,91,0.00,,,0.00,Wunderground v.1.15,2013-05-28 09:51:00,
2013-05-28 05:56:00,40.6,38.2,30.20,SE,136,0.0,0.0,91,0.00,,,0.00,Wunderground v.1.15,2013-05-28 09:56:00,
2013-05-28 06:01:00,40.8,38.4,30.21,SE,136,0.0,0.0,91,0.00,,,0.00,Wunderground v.1.15,2013-05-28 10:01:00,
2013-05-28 06:06:00,41.5,39.1,30.21,SE,136,0.0,3.0,91,0.00,,,0.00,Wunderground v.1.15,2013-05-28 10:06:00,
2013-05-28 06:11:00,41.9,39.5,30.21,SE,136,0.0,1.0,91,0.00,,,0.00,Wunderground v.1.15,2013-05-28 10:11:00,
2013-05-28 06:16:00,42.5,39.8,30.21,SE,136,0.0,3.0,90,0.00,,,0.00,Wunderground v.1.15,2013-05-28 10:16:00,
2013-05-28 06:21:00,42.9,39.9,30.21,SE,136,0.0,0.0,89,0.00,,,0.00,Wunderground v.1.15,2013-05-28 10:21:00,
2013-05-28 06:26:00,43.2,39.9,30.21,SE,136,0.0,1.0,88,0.00,,,0.00,Wunderground v.1.15,2013-05-28 10:26:00,
2013-05-28 06:31:00,43.3,39.7,30.21,SE,136,0.0,0.0,87,0.00,,,0.00,Wunderground v.1.15,2013-05-28 10:31:00,
2013-05-28 06:36:00,43.6,40.0,30.21,SE,136,0.0,2.0,87,0.00,,,0.00,Wunderground v.1.15,2013-05-28 10:36:00,
2013-05-28 06:41:00,43.8,40.2,30.21,SE,136,1.0,2.0,87,0.00,,,0.00,Wunderground v.1.15,2013-05-28 10:41:00,
2013-05-28 06:46:00,44.1,40.2,30.21,SE,136,1.0,2.0,86,0.00,,,0.00,Wunderground v.1.15,2013-05-28 10:46:00,
2013-05-28 06:51:00,44.3,40.1,30.21,SE,136,1.0,1.0,85,0.00,,,0.00,Wunderground v.1.15,2013-05-28 10:51:00,
2013-05-28 06:56:00,44.5,40.3,30.21,SE,136,0.0,4.0,85,0.00,,,0.00,Wunderground v.1.15,2013-05-28 10:56:00,
2013-05-28 07:01:00,44.9,40.7,30.21,SE,136,2.0,4.0,85,0.00,,,0.00,Wunderground v.1.15,2013-05-28 11:01:00,
2013-05-28 07:06:00,45.2,41.0,30.21,SE,136,1.0,4.0,85,0.00,,,0.00,Wunderground v.1.15,2013-05-28 11:06:00,
2013-05-28 07:11:00,46.1,41.8,30.21,SE,136,0.0,3.0,85,0.00,,,0.00,Wunderground v.1.15,2013-05-28 11:11:00,
2013-05-28 07:16:00,46.5,41.9,30.21,SE,136,0.0,4.0,84,0.00,,,0.00,Wunderground v.1.15,2013-05-28 11:16:00,
2013-05-28 07:21:00,47.0,42.1,30.21,SE,136,1.0,2.0,83,0.00,,,0.00,Wunderground v.1.15,2013-05-28 11:21:00,
2013-05-28 07:26:00,47.3,42.4,30.21,SE,136,0.0,3.0,83,0.00,,,0.00,Wunderground v.1.15,2013-05-28 11:26:00,
2013-05-28 07:31:00,48.0,43.1,30.21,SE,136,0.0,1.0,83,0.00,,,0.00,Wunderground v.1.15,2013-05-28 11:31:00,
2013-05-28 07:36:00,48.5,43.3,30.21,SE,136,1.0,1.0,82,0.00,,,0.00,Wunderground v.1.15,2013-05-28 11:36:00,
2013-05-28 07:41:00,48.9,43.6,30.21,SE,135,2.0,4.0,82,0.00,,,0.00,Wunderground v.1.15,2013-05-28 11:41:00,
2013-05-28 07:46:00,49.4,43.2,30.21,SE,136,0.0,5.0,79,0.00,,,0.00,Wunderground v.1.15,2013-05-28 11:46:00,
2013-05-28 07:51:00,49.6,43.0,30.21,SE,136,3.0,4.0,78,0.00,,,0.00,Wunderground v.1.15,2013-05-28 11:51:00,
2013-05-28 07:56:00,49.9,43.3,30.21,SE,136,0.0,4.0,78,0.00,,,0.00,Wunderground v.1.15,2013-05-28 11:56:00,
2013-05-28 08:01:00,50.5,43.2,30.21,SE,136,0.0,2.0,76,0.00,,,0.00,Wunderground v.1.15,2013-05-28 12:01:00,
2013-05-28 08:07:00,50.8,43.8,30.21,SE,136,4.0,4.0,77,0.00,,,0.00,Wunderground v.1.15,2013-05-28 12:07:00,
2013-05-28 08:12:00,51.6,44.6,30.21,SE,136,0.0,1.0,77,0.00,,,0.00,Wunderground v.1.15,2013-05-28 12:12:00,
2013-05-28 08:17:00,52.0,44.3,30.21,SE,136,2.0,3.0,75,0.00,,,0.00,Wunderground v.1.15,2013-05-28 12:17:00,
2013-05-28 08:22:00,52.3,44.6,30.21,SE,136,0.0,3.0,75,0.00,,,0.00,Wunderground v.1.15,2013-05-28 12:22:00,
2013-05-28 08:27:00,52.9,44.5,30.20,SE,134,0.0,4.0,73,0.00,,,0.00,Wunderground v.1.15,2013-05-28 12:27:00,
2013-05-28 08:32:00,53.1,44.3,30.20,SE,134,0.0,3.0,72,0.00,,,0.00,Wunderground v.1.15,2013-05-28 12:32:00,
2013-05-28 08:37:00,53.8,45.7,30.20,SE,134,0.0,3.0,74,0.00,,,0.00,Wunderground v.1.15,2013-05-28 12:37:00,
2013-05-28 08:42:00,55.0,46.9,30.20,SE,134,1.0,1.0,74,0.00,,,0.00,Wunderground v.1.15,2013-05-28 12:42:00,
2013-05-28 08:47:00,55.7,46.1,30.20,SE,133,1.0,4.0,70,0.00,,,0.00,Wunderground v.1.15,2013-05-28 12:47:00,
2013-05-28 08:52:00,55.9,45.9,30.20,SE,133,1.0,4.0,69,0.00,,,0.00,Wunderground v.1.15,2013-05-28 12:52:00,
2013-05-28 08:57:00,56.5,46.4,30.19,SE,133,2.0,4.0,69,0.00,,,0.00,Wunderground v.1.15,2013-05-28 12:57:00,
2013-05-28 09:02:00,57.2,47.1,30.19,SE,134,0.0,2.0,69,0.00,,,0.00,Wunderground v.1.15,2013-05-28 13:02:00,
2013-05-28 09:07:00,57.6,47.5,30.19,SE,136,0.0,4.0,69,0.00,,,0.00,Wunderground v.1.15,2013-05-28 13:07:00,
2013-05-28 09:12:00,57.5,46.6,30.19,SE,140,1.0,4.0,67,0.00,,,0.00,Wunderground v.1.15,2013-05-28 13:12:00,
2013-05-28 09:17:00,57.6,46.3,30.19,SE,140,0.0,4.0,66,0.00,,,0.00,Wunderground v.1.15,2013-05-28 13:17:00,
2013-05-28 09:22:00,58.3,47.0,30.19,SE,140,0.0,3.0,66,0.00,,,0.00,Wunderground v.1.15,2013-05-28 13:22:00,
2013-05-28 09:27:00,58.6,46.5,30.19,SE,141,0.0,3.0,64,0.00,,,0.00,Wunderground v.1.15,2013-05-28 13:27:00,
2013-05-28 09:32:00,59.0,47.2,30.19,SE,142,0.0,2.0,65,0.00,,,0.00,Wunderground v.1.15,2013-05-28 13:32:00,
2013-05-28 09:37:00,59.2,47.4,30.19,SE,142,1.0,3.0,65,0.00,,,0.00,Wunderground v.1.15,2013-05-28 13:37:00,
2013-05-28 09:42:00,59.5,46.9,30.19,SE,142,3.0,3.0,63,0.00,,,0.00,Wunderground v.1.15,2013-05-28 13:42:00,
2013-05-28 09:47:00,60.2,46.3,30.19,SE,142,0.0,3.0,60,0.00,,,0.00,Wunderground v.1.15,2013-05-28 13:47:00,
2013-05-28 09:52:00,60.2,46.7,30.19,SSE,160,0.0,5.0,61,0.00,,,0.00,Wunderground v.1.15,2013-05-28 13:52:00,
2013-05-28 09:57:00,60.2,45.4,30.19,SW,227,0.0,6.0,58,0.00,,,0.00,Wunderground v.1.15,2013-05-28 13:57:00,
2013-05-28 10:02:00,60.7,45.4,30.19,SW,227,0.0,2.0,57,0.00,,,0.00,Wunderground v.1.15,2013-05-28 14:02:00,
2013-05-28 10:07:00,61.3,45.5,30.19,SW,227,0.0,2.0,56,0.00,,,0.00,Wunderground v.1.15,2013-05-28 14:07:00,
2013-05-28 10:12:00,61.3,45.5,30.19,SW,227,1.0,4.0,56,0.00,,,0.00,Wunderground v.1.15,2013-05-28 14:12:00,
2013-05-28 10:17:00,61.3,45.0,30.19,WSW,238,0.0,7.0,55,0.00,,,0.00,Wunderground v.1.15,2013-05-28 14:17:00,
2013-05-28 10:22:00,61.6,45.3,30.19,WSW,238,2.0,5.0,55,0.00,,,0.00,Wunderground v.1.15,2013-05-28 14:22:00,
2013-05-28 10:27:00,62.1,44.8,30.19,SW,224,0.0,6.0,53,0.00,,,0.00,Wunderground v.1.15,2013-05-28 14:27:00,
2013-05-28 10:32:00,62.4,45.0,30.19,SW,223,0.0,4.0,53,0.00,,,0.00,Wunderground v.1.15,2013-05-28 14:32:00,
2013-05-28 10:37:00,62.9,47.9,30.19,SW,223,2.0,4.0,58,0.00,,,0.00,Wunderground v.1.15,2013-05-28 14:37:00,
2013-05-28 10:42:00,62.7,46.3,30.19,SW,217,0.0,6.0,55,0.00,,,0.00,Wunderground v.1.15,2013-05-28 14:42:00,
2013-05-28 10:47:00,62.9,48.8,30.19,WSW,238,3.0,8.0,60,0.00,,,0.00,Wunderground v.1.15,2013-05-28 14:47:00,
2013-05-28 10:53:00,62.7,48.6,30.19,WSW,247,3.0,7.0,60,0.00,,,0.00,Wunderground v.1.15,2013-05-28 14:53:00,
2013-05-28 10:58:00,62.9,47.9,30.19,WSW,252,4.0,8.0,58,0.00,,,0.00,Wunderground v.1.15,2013-05-28 14:58:00,
2013-05-28 11:03:00,62.9,49.2,30.19,WSW,247,6.0,6.0,61,0.00,,,0.00,Wunderground v.1.15,2013-05-28 15:03:00,
2013-05-28 11:08:00,62.9,49.2,30.19,WSW,248,0.0,9.0,61,0.00,,,0.00,Wunderground v.1.15,2013-05-28 15:08:00,
2013-05-28 11:13:00,63.4,47.9,30.19,WSW,246,1.0,7.0,57,0.00,,,0.00,Wunderground v.1.15,2013-05-28 15:13:00,
2013-05-28 11:18:00,63.5,46.6,30.19,WSW,251,1.0,7.0,54,0.00,,,0.00,Wunderground v.1.15,2013-05-28 15:18:00,
2013-05-28 11:23:00,63.9,47.4,30.19,SW,224,1.0,7.0,55,0.00,,,0.00,Wunderground v.1.15,2013-05-28 15:23:00,
2013-05-28 11:28:00,64.3,45.8,30.19,SW,221,4.0,7.0,51,0.00,,,0.00,Wunderground v.1.15,2013-05-28 15:28:00,
2013-05-28 11:33:00,64.8,46.8,30.19,SW,221,0.0,4.0,52,0.00,,,0.00,Wunderground v.1.15,2013-05-28 15:33:00,
2013-05-28 11:38:00,65.2,46.6,30.19,SW,216,6.0,6.0,51,0.00,,,0.00,Wunderground v.1.15,2013-05-28 15:38:00,
2013-05-28 11:43:00,65.3,47.7,30.19,SSW,211,0.0,5.0,53,0.00,,,0.00,Wunderground v.1.15,2013-05-28 15:43:00,
2013-05-28 11:48:00,66.3,48.7,30.19,SSW,211,5.0,5.0,53,0.00,,,0.00,Wunderground v.1.15,2013-05-28 15:48:00,
2013-05-28 11:53:00,66.4,45.5,30.19,SSW,209,3.0,5.0,47,0.00,,,0.00,Wunderground v.1.15,2013-05-28 15:53:00,
2013-05-28 11:58:00,66.3,46.0,30.18,WSW,242,3.0,7.0,48,0.00,,,0.00,Wunderground v.1.15,2013-05-28 15:58:00,
2013-05-28 12:03:00,66.4,45.0,30.18,SW,214,2.0,10.0,46,0.00,,,0.00,Wunderground v.1.15,2013-05-28 16:03:00,
2013-05-28 12:08:00,66.8,44.2,30.18,SSW,195,5.0,10.0,44,0.00,,,0.00,Wunderground v.1.15,2013-05-28 16:08:00,
2013-05-28 12:13:00,66.9,42.4,30.17,SSW,213,4.0,7.0,41,0.00,,,0.00,Wunderground v.1.15,2013-05-28 16:13:00,
2013-05-28 12:18:00,67.1,42.6,30.17,SSW,199,0.0,11.0,41,0.00,,,0.00,Wunderground v.1.15,2013-05-28 16:18:00,
2013-05-28 12:23:00,67.4,45.9,30.17,SW,224,5.0,9.0,46,0.00,,,0.00,Wunderground v.1.15,2013-05-28 16:23:00,
2013-05-28 12:28:00,67.8,42.6,30.17,SSE,154,8.0,13.0,40,0.00,,,0.00,Wunderground v.1.15,2013-05-28 16:28:00,
2013-05-28 12:34:00,68.1,42.2,30.17,SSW,196,2.0,13.0,39,0.00,,,0.00,Wunderground v.1.15,2013-05-28 16:34:00,
2013-05-28 12:39:00,68.3,43.0,30.17,SSW,202,6.0,13.0,40,0.00,,,0.00,Wunderground v.1.15,2013-05-28 16:39:00,
2013-05-28 12:44:00,67.9,37.7,30.16,South,173,5.0,14.0,33,0.00,,,0.00,Wunderground v.1.15,2013-05-28 16:44:00,
2013-05-28 12:49:00,67.6,37.5,30.16,South,185,3.0,14.0,33,0.00,,,0.00,Wunderground v.1.15,2013-05-28 16:49:00,
2013-05-28 12:54:00,68.1,37.1,30.16,SSW,194,3.0,11.0,32,0.00,,,0.00,Wunderground v.1.15,2013-05-28 16:54:00,
2013-05-28 12:59:00,68.6,40.6,30.16,South,181,2.0,11.0,36,0.00,,,0.00,Wunderground v.1.15,2013-05-28 16:59:00,
2013-05-28 13:04:00,68.6,37.5,30.16,South,189,2.0,13.0,32,0.00,,,0.00,Wunderground v.1.15,2013-05-28 17:04:00,
2013-05-28 13:09:00,68.8,41.5,30.16,South,179,3.0,13.0,37,0.00,,,0.00,Wunderground v.1.15,2013-05-28 17:09:00,
2013-05-28 13:14:00,69.1,39.5,30.15,SW,225,2.0,13.0,34,0.00,,,0.00,Wunderground v.1.15,2013-05-28 17:14:00,
2013-05-28 13:19:00,68.9,37.8,30.15,South,190,4.0,13.0,32,0.00,,,0.00,Wunderground v.1.15,2013-05-28 17:19:00,
2013-05-28 13:24:00,69.1,41.7,30.15,SW,221,7.0,13.0,37,0.00,,,0.00,Wunderground v.1.15,2013-05-28 17:24:00,
2013-05-28 13:29:00,69.6,41.5,30.15,SSW,205,7.0,13.0,36,0.00,,,0.00,Wunderground v.1.15,2013-05-28 17:29:00,
2013-05-28 13:35:00,69.3,39.7,30.15,SSW,203,2.0,10.0,34,0.00,,,0.00,Wunderground v.1.15,2013-05-28 17:35:00,
2013-05-28 13:40:00,69.3,41.2,30.15,South,169,5.0,10.0,36,0.00,,,0.00,Wunderground v.1.15,2013-05-28 17:40:00,
2013-05-28 13:45:00,69.6,40.0,30.14,South,180,2.0,7.0,34,0.00,,,0.00,Wunderground v.1.15,2013-05-28 17:45:00,
2013-05-28 13:50:00,70.3,42.8,30.14,South,185,5.0,7.0,37,0.00,,,0.00,Wunderground v.1.15,2013-05-28 17:50:00,
2013-05-28 13:55:00,70.4,41.4,30.14,SSE,163,7.0,11.0,35,0.00,,,0.00,Wunderground v.1.15,2013-05-28 17:55:00,
2013-05-28 13:59:00,70.3,40.6,30.14,South,186,3.0,11.0,34,0.00,,,0.00,Wunderground v.1.15,2013-05-28 17:59:00,
2013-05-28 14:04:00,70.6,42.3,30.14,South,191,0.0,7.0,36,0.00,,,0.00,Wunderground v.1.15,2013-05-28 18:04:00,
2013-05-28 14:09:00,70.6,40.1,30.14,SSW,194,1.0,7.0,33,0.00,,,0.00,Wunderground v.1.15,2013-05-28 18:09:00,
2013-05-28 14:15:00,70.4,39.9,30.13,SSW,192,5.0,6.0,33,0.00,,,0.00,Wunderground v.1.15,2013-05-28 18:15:00,
2013-05-28 14:20:00,70.4,40.7,30.13,SSW,196,11.0,11.0,34,0.00,,,0.00,Wunderground v.1.15,2013-05-28 18:20:00,
2013-05-28 14:25:00,70.4,39.1,30.13,SSE,161,5.0,15.0,32,0.00,,,0.00,Wunderground v.1.15,2013-05-28 18:25:00,
2013-05-28 14:29:00,70.8,42.5,30.13,SSE,162,2.0,15.0,36,0.00,,,0.00,Wunderground v.1.15,2013-05-28 18:29:00,
2013-05-28 14:35:00,71.1,41.3,30.13,SSW,194,4.0,9.0,34,0.00,,,0.00,Wunderground v.1.15,2013-05-28 18:35:00,
2013-05-28 14:40:00,70.9,43.3,30.13,SW,226,4.0,4.0,37,0.00,,,0.00,Wunderground v.1.15,2013-05-28 18:40:00,
2013-05-28 14:45:00,71.1,42.8,30.12,WSW,246,5.0,7.0,36,0.00,,,0.00,Wunderground v.1.15,2013-05-28 18:45:00,
2013-05-28 14:50:00,71.1,41.3,30.12,SSW,196,0.0,4.0,34,0.00,,,0.00,Wunderground v.1.15,2013-05-28 18:50:00,
2013-05-28 14:55:00,71.3,42.2,30.12,SSW,200,0.0,6.0,35,0.00,,,0.00,Wunderground v.1.15,2013-05-28 18:55:00,
2013-05-28 15:00:00,71.5,41.6,30.12,WSW,248,0.0,3.0,34,0.00,,,0.00,Wunderground v.1.15,2013-05-28 19:00:00,
2013-05-28 15:05:00,72.0,40.5,30.12,SSW,194,6.0,9.0,32,0.00,,,0.00,Wunderground v.1.15,2013-05-28 19:05:00,
2013-05-28 15:10:00,72.0,42.8,30.12,SSW,193,2.0,3.0,35,0.00,,,0.00,Wunderground v.1.15,2013-05-28 19:10:00,
2013-05-28 15:15:00,71.8,37.8,30.11,SSE,163,2.0,13.0,29,0.00,,,0.00,Wunderground v.1.15,2013-05-28 19:15:00,
2013-05-28 15:20:00,71.5,40.1,30.11,SSE,166,2.0,5.0,32,0.00,,,0.00,Wunderground v.1.15,2013-05-28 19:20:00,
2013-05-28 15:25:00,71.6,41.7,30.11,SSW,192,2.0,6.0,34,0.00,,,0.00,Wunderground v.1.15,2013-05-28 19:25:00,
2013-05-28 15:30:00,71.6,41.7,30.11,WSW,241,0.0,6.0,34,0.00,,,0.00,Wunderground v.1.15,2013-05-28 19:30:00,
2013-05-28 15:35:00,71.5,42.4,30.11,SSW,210,4.0,7.0,35,0.00,,,0.00,Wunderground v.1.15,2013-05-28 19:35:00,
2013-05-28 15:40:00,71.3,43.7,30.11,SSW,209,4.0,4.0,37,0.00,,,0.00,Wunderground v.1.15,2013-05-28 19:40:00,
2013-05-28 15:45:00,71.1,42.8,30.11,SW,217,1.0,7.0,36,0.00,,,0.00,Wunderground v.1.15,2013-05-28 19:45:00,
2013-05-28 15:50:00,71.3,42.2,30.11,SSW,196,4.0,10.0,35,0.00,,,0.00,Wunderground v.1.15,2013-05-28 19:50:00,
2013-05-28 15:55:00,71.3,43.0,30.11,SSW,196,0.0,12.0,36,0.00,,,0.00,Wunderground v.1.15,2013-05-28 19:55:00,
2013-05-28 16:00:00,71.3,44.4,30.11,South,187,7.0,7.0,38,0.00,,,0.00,Wunderground v.1.15,2013-05-28 20:00:00,
2013-05-28 16:05:00,71.3,45.7,30.11,WSW,244,6.0,10.0,40,0.00,,,0.00,Wunderground v.1.15,2013-05-28 20:05:00,
2013-05-28 16:10:00,71.1,42.8,30.11,SSW,197,7.0,8.0,36,0.00,,,0.00,Wunderground v.1.15,2013-05-28 20:10:00,
2013-05-28 16:15:00,71.5,43.1,30.10,SW,228,1.0,8.0,36,0.00,,,0.00,Wunderground v.1.15,2013-05-28 20:15:00,
2013-05-28 16:20:00,71.6,43.2,30.10,SSW,210,2.0,3.0,36,0.00,,,0.00,Wunderground v.1.15,2013-05-28 20:20:00,
2013-05-28 16:25:00,71.6,43.9,30.10,South,180,2.0,11.0,37,0.00,,,0.00,Wunderground v.1.15,2013-05-28 20:25:00,
2013-05-28 16:30:00,71.3,43.0,30.10,South,182,5.0,6.0,36,0.00,,,0.00,Wunderground v.1.15,2013-05-28 20:30:00,
2013-05-28 16:35:00,71.1,42.0,30.10,South,177,5.0,12.0,35,0.00,,,0.00,Wunderground v.1.15,2013-05-28 20:35:00,
2013-05-28 16:40:00,71.3,43.7,30.10,South,175,1.0,4.0,37,0.00,,,0.00,Wunderground v.1.15,2013-05-28 20:40:00,
2013-05-28 16:45:00,71.8,44.8,30.09,South,180,0.0,9.0,38,0.00,,,0.00,Wunderground v.1.15,2013-05-28 20:45:00,
2013-05-28 16:50:00,72.1,45.1,30.09,South,180,1.0,5.0,38,0.00,,,0.00,Wunderground v.1.15,2013-05-28 20:50:00,
2013-05-28 16:55:00,71.8,42.7,30.09,South,172,4.0,9.0,35,0.00,,,0.00,Wunderground v.1.15,2013-05-28 20:55:00,
2013-05-28 17:00:00,71.8,43.4,30.09,SSE,153,2.0,5.0,36,0.00,,,0.00,Wunderground v.1.15,2013-05-28 21:00:00,
2013-05-28 17:06:00,71.8,44.1,30.09,South,173,0.0,11.0,37,0.00,,,0.00,Wunderground v.1.15,2013-05-28 21:06:00,
2013-05-28 17:11:00,71.6,43.9,30.09,SSE,167,2.0,7.0,37,0.00,,,0.00,Wunderground v.1.15,2013-05-28 21:11:00,
2013-05-28 17:16:00,71.5,43.8,30.08,South,186,3.0,10.0,37,0.00,,,0.00,Wunderground v.1.15,2013-05-28 21:16:00,
2013-05-28 17:21:00,71.3,42.2,30.08,South,173,4.0,7.0,35,0.00,,,0.00,Wunderground v.1.15,2013-05-28 21:21:00,
2013-05-28 17:26:00,71.3,43.7,30.08,South,171,5.0,13.0,37,0.00,,,0.00,Wunderground v.1.15,2013-05-28 21:26:00,
2013-05-28 17:31:00,71.3,45.1,30.08,South,176,0.0,4.0,39,0.00,,,0.00,Wunderground v.1.15,2013-05-28 21:31:00,
2013-05-28 17:36:00,71.5,44.5,30.08,South,177,0.0,5.0,38,0.00,,,0.00,Wunderground v.1.15,2013-05-28 21:36:00,
2013-05-28 17:41:00,71.6,44.6,30.08,South,174,1.0,6.0,38,0.00,,,0.00,Wunderground v.1.15,2013-05-28 21:41:00,
2013-05-28 17:46:00,72.0,46.3,30.08,South,174,2.0,6.0,40,0.00,,,0.00,Wunderground v.1.15,2013-05-28 21:46:00,
2013-05-28 17:51:00,72.0,45.0,30.08,SSE,164,0.0,3.0,38,0.00,,,0.00,Wunderground v.1.15,2013-05-28 21:51:00,
2013-05-28 17:56:00,72.0,45.0,30.08,SSE,163,7.0,10.0,38,0.00,,,0.00,Wunderground v.1.15,2013-05-28 21:56:00,
2013-05-28 18:01:00,72.0,43.6,30.07,SSE,165,1.0,7.0,36,0.00,,,0.00,Wunderground v.1.15,2013-05-28 22:01:00,
2013-05-28 18:06:00,72.3,45.9,30.07,SSE,164,0.0,7.0,39,0.00,,,0.00,Wunderground v.1.15,2013-05-28 22:06:00,
2013-05-28 18:11:00,72.5,44.7,30.07,SSE,148,11.0,11.0,37,0.00,,,0.00,Wunderground v.1.15,2013-05-28 22:11:00,
2013-05-28 18:16:00,72.3,44.6,30.07,SSE,163,0.0,11.0,37,0.00,,,0.00,Wunderground v.1.15,2013-05-28 22:16:00,
2013-05-28 18:21:00,72.5,43.3,30.07,SSW,192,10.0,10.0,35,0.00,,,0.00,Wunderground v.1.15,2013-05-28 22:21:00,
2013-05-28 18:26:00,72.5,42.5,30.07,South,184,4.0,10.0,34,0.00,,,0.00,Wunderground v.1.15,2013-05-28 22:26:00,
2013-05-28 18:31:00,72.1,42.2,30.07,South,179,2.0,11.0,34,0.00,,,0.00,Wunderground v.1.15,2013-05-28 22:31:00,
2013-05-28 18:36:00,72.0,44.3,30.07,South,169,0.0,11.0,37,0.00,,,0.00,Wunderground v.1.15,2013-05-28 22:36:00,
2013-05-28 18:41:00,72.0,45.0,30.07,South,174,3.0,4.0,38,0.00,,,0.00,Wunderground v.1.15,2013-05-28 22:41:00,
2013-05-28 18:46:00,71.8,44.1,30.07,South,173,0.0,4.0,37,0.00,,,0.00,Wunderground v.1.15,2013-05-28 22:46:00,
2013-05-28 18:51:00,71.6,46.6,30.07,South,173,0.0,3.0,41,0.00,,,0.00,Wunderground v.1.15,2013-05-28 22:51:00,
2013-05-28 18:56:00,71.3,45.7,30.07,South,181,0.0,4.0,40,0.00,,,0.00,Wunderground v.1.15,2013-05-28 22:56:00,
2013-05-28 19:01:00,70.8,46.6,30.07,South,179,2.0,4.0,42,0.00,,,0.00,Wunderground v.1.15,2013-05-28 23:01:00,
2013-05-28 19:06:00,70.3,46.1,30.07,South,178,3.0,5.0,42,0.00,,,0.00,Wunderground v.1.15,2013-05-28 23:06:00,
2013-05-28 19:11:00,69.8,46.3,30.07,South,178,1.0,4.0,43,0.00,,,0.00,Wunderground v.1.15,2013-05-28 23:11:00,
2013-05-28 19:16:00,69.4,45.3,30.07,South,176,0.0,4.0,42,0.00,,,0.00,Wunderground v.1.15,2013-05-28 23:16:00,
2013-05-28 19:21:00,69.1,45.0,30.07,South,173,0.0,4.0,42,0.00,,,0.00,Wunderground v.1.15,2013-05-28 23:21:00,
2013-05-28 19:26:00,68.8,44.1,30.07,South,175,2.0,6.0,41,0.00,,,0.00,Wunderground v.1.15,2013-05-28 23:26:00,
2013-05-28 19:32:00,68.6,43.9,30.07,South,171,0.0,4.0,41,0.00,,,0.00,Wunderground v.1.15,2013-05-28 23:32:00,
2013-05-28 19:37:00,68.4,43.8,30.07,South,171,1.0,4.0,41,0.00,,,0.00,Wunderground v.1.15,2013-05-28 23:37:00,
2013-05-28 19:42:00,68.3,43.7,30.07,South,170,3.0,5.0,41,0.00,,,0.00,Wunderground v.1.15,2013-05-28 23:42:00,
2013-05-28 19:47:00,67.9,44.0,30.07,South,170,0.0,5.0,42,0.00,,,0.00,Wunderground v.1.15,2013-05-28 23:47:00,
2013-05-28 19:51:00,67.6,44.9,30.07,South,169,0.0,3.0,44,0.00,,,0.00,Wunderground v.1.15,2013-05-28 23:51:00,
2013-05-28 19:57:00,67.1,45.6,30.06,South,169,0.0,3.0,46,0.00,,,0.00,Wunderground v.1.15,2013-05-28 23:57:00,
2013-05-28 20:02:00,66.8,45.3,30.06,South,169,1.0,4.0,46,0.00,,,0.00,Wunderground v.1.15,2013-05-29 00:02:00,
2013-05-28 20:07:00,66.4,45.5,30.06,South,169,0.0,4.0,47,0.00,,,0.00,Wunderground v.1.15,2013-05-29 00:07:00,
2013-05-28 20:12:00,66.0,46.3,30.06,South,169,0.0,1.0,49,0.00,,,0.00,Wunderground v.1.15,2013-05-29 00:12:00,
2013-05-28 20:17:00,65.8,46.1,30.06,South,169,0.0,2.0,49,0.00,,,0.00,Wunderground v.1.15,2013-05-29 00:17:00,
2013-05-28 20:22:00,65.6,46.5,30.06,South,169,0.0,2.0,50,0.00,,,0.00,Wunderground v.1.15,2013-05-29 00:22:00,
2013-05-28 20:27:00,65.3,46.7,30.07,South,169,2.0,2.0,51,0.00,,,0.00,Wunderground v.1.15,2013-05-29 00:27:00,
2013-05-28 20:32:00,64.8,47.3,30.07,South,169,0.0,2.0,53,0.00,,,0.00,Wunderground v.1.15,2013-05-29 00:32:00,
2013-05-28 20:37:00,64.7,47.2,30.07,South,169,0.0,2.0,53,0.00,,,0.00,Wunderground v.1.15,2013-05-29 00:37:00,
2013-05-28 20:42:00,64.3,46.8,30.07,South,169,2.0,2.0,53,0.00,,,0.00,Wunderground v.1.15,2013-05-29 00:42:00,
2013-05-28 20:47:00,64.2,47.2,30.07,South,169,2.0,3.0,54,0.00,,,0.00,Wunderground v.1.15,2013-05-29 00:47:00,
2013-05-28 20:52:00,64.0,47.0,30.07,SSE,165,0.0,4.0,54,0.00,,,0.00,Wunderground v.1.15,2013-05-29 00:52:00,
2013-05-28 20:57:00,64.0,47.0,30.07,SSE,155,4.0,10.0,54,0.00,,,0.00,Wunderground v.1.15,2013-05-29 00:57:00,
2013-05-28 21:02:00,64.0,47.0,30.07,SSE,154,0.0,3.0,54,0.00,,,0.00,Wunderground v.1.15,2013-05-29 01:02:00,
2013-05-28 21:07:00,63.9,47.4,30.07,SSE,153,0.0,5.0,55,0.00,,,0.00,Wunderground v.1.15,2013-05-29 01:07:00,
2013-05-28 21:12:00,63.7,47.2,30.07,SSE,153,1.0,4.0,55,0.00,,,0.00,Wunderground v.1.15,2013-05-29 01:12:00,
2013-05-28 21:17:00,63.4,47.4,30.07,SSE,155,0.0,4.0,56,0.00,,,0.00,Wunderground v.1.15,2013-05-29 01:17:00,
2013-05-28 21:22:00,63.1,47.6,30.07,SSE,155,1.0,4.0,57,0.00,,,0.00,Wunderground v.1.15,2013-05-29 01:22:00,
2013-05-28 21:27:00,62.9,47.4,30.07,SSE,153,1.0,6.0,57,0.00,,,0.00,Wunderground v.1.15,2013-05-29 01:27:00,
2013-05-28 21:32:00,62.7,47.7,30.07,SSE,149,4.0,5.0,58,0.00,,,0.00,Wunderground v.1.15,2013-05-29 01:32:00,
2013-05-28 21:37:00,62.6,47.6,30.07,SSE,147,3.0,6.0,58,0.00,,,0.00,Wunderground v.1.15,2013-05-29 01:37:00,
2013-05-28 21:42:00,62.6,47.6,30.08,SE,145,4.0,7.0,58,0.00,,,0.00,Wunderground v.1.15,2013-05-29 01:42:00,
2013-05-28 21:47:00,62.7,47.7,30.08,SE,146,5.0,7.0,58,0.00,,,0.00,Wunderground v.1.15,2013-05-29 01:47:00,
2013-05-28 21:52:00,62.9,47.9,30.08,SSE,148,3.0,6.0,58,0.00,,,0.00,Wunderground v.1.15,2013-05-29 01:52:00,
2013-05-28 21:57:00,63.1,47.6,30.08,South,172,1.0,9.0,57,0.00,,,0.00,Wunderground v.1.15,2013-05-29 01:57:00,
2013-05-28 22:02:00,63.1,47.6,30.08,South,171,2.0,6.0,57,0.00,,,0.00,Wunderground v.1.15,2013-05-29 02:02:00,
2013-05-28 22:07:00,62.9,47.9,30.08,South,171,4.0,7.0,58,0.00,,,0.00,Wunderground v.1.15,2013-05-29 02:07:00,
2013-05-28 22:12:00,62.9,47.9,30.08,SSE,160,4.0,9.0,58,0.00,,,0.00,Wunderground v.1.15,2013-05-29 02:12:00,
2013-05-28 22:17:00,62.7,47.7,30.08,SSE,164,1.0,9.0,58,0.00,,,0.00,Wunderground v.1.15,2013-05-29 02:17:00,
2013-05-28 22:22:00,62.4,47.9,30.08,SSE,165,6.0,6.0,59,0.00,,,0.00,Wunderground v.1.15,2013-05-29 02:22:00,
2013-05-28 22:27:00,62.3,48.2,30.08,SSE,153,9.0,12.0,60,0.00,,,0.00,Wunderground v.1.15,2013-05-29 02:27:00,
2013-05-28 22:32:00,62.1,48.0,30.08,SSE,158,2.0,7.0,60,0.00,,,0.00,Wunderground v.1.15,2013-05-29 02:32:00,
2013-05-28 22:37:00,62.1,48.0,30.08,SSE,168,5.0,7.0,60,0.00,,,0.00,Wunderground v.1.15,2013-05-29 02:37:00,
2013-05-28 22:42:00,62.0,48.4,30.08,SSE,163,5.0,7.0,61,0.00,,,0.00,Wunderground v.1.15,2013-05-29 02:42:00,
2013-05-28 22:47:00,62.0,48.0,30.08,SSE,161,2.0,12.0,60,0.00,,,0.00,Wunderground v.1.15,2013-05-29 02:47:00,
2013-05-28 22:52:00,62.1,48.0,30.08,SSE,167,6.0,15.0,60,0.00,,,0.00,Wunderground v.1.15,2013-05-29 02:52:00,
2013-05-28 22:57:00,62.4,48.3,30.08,South,178,5.0,15.0,60,0.00,,,0.00,Wunderground v.1.15,2013-05-29 02:57:00,
2013-05-28 23:02:00,62.4,48.3,30.08,South,171,5.0,9.0,60,0.00,,,0.00,Wunderground v.1.15,2013-05-29 03:02:00,
2013-05-28 23:07:00,62.6,48.5,30.08,South,186,2.0,10.0,60,0.00,,,0.00,Wunderground v.1.15,2013-05-29 03:07:00,
2013-05-28 23:12:00,62.6,48.5,30.07,SSW,204,2.0,14.0,60,0.00,,,0.00,Wunderground v.1.15,2013-05-29 03:12:00,
2013-05-28 23:17:00,62.6,48.5,30.07,South,175,12.0,14.0,60,0.00,,,0.00,Wunderground v.1.15,2013-05-29 03:17:00,
2013-05-28 23:22:00,62.6,48.5,30.07,South,173,6.0,11.0,60,0.00,,,0.00,Wunderground v.1.15,2013-05-29 03:22:00,
2013-05-28 23:27:00,62.6,48.5,30.07,South,174,11.0,11.0,60,0.00,,,0.00,Wunderground v.1.15,2013-05-29 03:27:00,
2013-05-28 23:32:00,62.6,49.0,30.07,South,181,4.0,11.0,61,0.00,,,0.00,Wunderground v.1.15,2013-05-29 03:32:00,
2013-05-28 23:37:00,62.6,49.0,30.07,South,184,7.0,11.0,61,0.00,,,0.00,Wunderground v.1.15,2013-05-29 03:37:00,
2013-05-28 23:42:00,62.4,48.8,30.07,South,182,3.0,10.0,61,0.00,,,0.00,Wunderground v.1.15,2013-05-29 03:42:00,
2013-05-28 23:47:00,62.4,49.2,30.07,South,183,0.0,10.0,62,0.00,,,0.00,Wunderground v.1.15,2013-05-29 03:47:00,
2013-05-28 23:52:00,62.3,49.5,30.07,South,178,0.0,8.0,63,0.00,,,0.00,Wunderground v.1.15,2013-05-29 03:52:00,
2013-05-28 23:57:00,62.3,49.5,30.07,South,179,1.0,8.0,63,0.00,,,0.00,Wunderground v.1.15,2013-05-29 03:57:00,